This is the latest recevied weather packets stored in our database for station/object N3WMC. If no packets are shown the sender has not sent any weather packets the latest 1 day(s).
| Time | Temp. | Humidity | Pressure | Rain* | Wind** | Luminosity | Snow |
|---|---|---|---|---|---|---|---|
| 1778026792 | 21.67° C | 47% | 1008.6 hPa | 0 mm | 0.45 m/s, 338° | 1 W/m² | - |
| 1778026489 | 21.67° C | 46% | 1008.7 hPa | 0 mm | 2.24 m/s, 250° | 2 W/m² | - |
| 1778026187 | 21.67° C | 46% | 1008.6 hPa | 0 mm | 0.89 m/s, 257° | 3 W/m² | - |
| 1778025884 | 21.67° C | 46% | 1008.6 hPa | 0 mm | 1.79 m/s, 294° | 4 W/m² | - |
| 1778025581 | 21.67° C | 46% | 1008.6 hPa | 0 mm | 1.34 m/s, 257° | 5 W/m² | - |
| 1778025279 | 21.67° C | 45% | 1008.4 hPa | 0 mm | 2.24 m/s, 276° | 6 W/m² | - |
| 1778024975 | 21.67° C | 45% | 1008.2 hPa | 0 mm | 1.34 m/s, 24° | 10 W/m² | - |
| 1778024673 | 21.67° C | 45% | 1008.4 hPa | 0 mm | 1.34 m/s, 266° | 14 W/m² | - |
| 1778024369 | 22.22° C | 45% | 1008.4 hPa | 0 mm | 1.34 m/s, 302° | 13 W/m² | - |
| 1778024067 | 21.67° C | 50% | 1008.2 hPa | 0 mm | 1.79 m/s, 258° | 13 W/m² | - |
| 1778023765 | 21.67° C | 52% | 1008.2 hPa | 0 mm | 0 m/s | 15 W/m² | - |
| 1778023463 | 21.67° C | 52% | 1008.4 hPa | 0 mm | 0.89 m/s, 340° | 28 W/m² | - |
| 1778023159 | 21.67° C | 53% | 1008.2 hPa | 0 mm | 0.45 m/s, 323° | 46 W/m² | - |
| 1778022857 | 21.67° C | 52% | 1008.3 hPa | 0 mm | 1.34 m/s, 276° | 36 W/m² | - |
| 1778022555 | 21.67° C | 53% | 1008.4 hPa | 0 mm | 0.45 m/s, 316° | 30 W/m² | - |
| 1778022262 | 21.67° C | 52% | 1008.4 hPa | 0 mm | 0.45 m/s, 337° | 34 W/m² | - |
| 1778021948 | 22.22° C | 52% | 1008.2 hPa | 0 mm | 0.89 m/s, 282° | 43 W/m² | - |
| 1778021645 | 22.22° C | 52% | 1008.3 hPa | 0 mm | 1.79 m/s, 261° | 45 W/m² | - |
| 1778021340 | 22.22° C | 52% | 1008.3 hPa | 0 mm | 1.34 m/s, 304° | 46 W/m² | - |
| 1778021038 | 22.22° C | 52% | 1008.2 hPa | 0 mm | 1.79 m/s, 314° | 54 W/m² | - |
| 1778020735 | 22.22° C | 52% | 1008.4 hPa | 0 mm | 2.24 m/s, 293° | 62 W/m² | - |
| 1778020432 | 22.22° C | 53% | 1008.3 hPa | 0 mm | 1.79 m/s, 272° | 66 W/m² | - |
| 1778020128 | 22.22° C | 52% | 1008.6 hPa | 0 mm | 2.24 m/s, 310° | 77 W/m² | - |
| 1778019824 | 22.22° C | 53% | 1008.6 hPa | 0 mm | 0.45 m/s, 314° | 74 W/m² | - |
| 1778019521 | 22.22° C | 52% | 1008.6 hPa | 0 mm | 2.68 m/s, 296° | 83 W/m² | - |
* Rain latest hour (hover to see other rain measurements)
** Current wind speed in m/s (hover to see current wind gust speed)